STARLINK-1808, 46707

Orbit data source: Space-Track

STARLINK-1808, 46707 is a payload satellite owned by SpaceX/Seattle (US) in LEO that was launched on Sun, 18 Oct 2020 UTC via an FALCON 9 launch vehicle from the Air Force Eastern Test Range (AFETR). Payloads include a variety of satellites, spacecraft, and rockets equipped with specific instruments for various scientific and technological missions. These include communications satellites like Starlink; space stations such as the ISS; scientific satellites like the Hubble; Earth observation satellites from companies like Planet Labs, Umbra, and HawkEye 360; GPS; miniature CubeSats for education and research; and military/defense satellites.

Loading next visibility...
STARLINK-1808 details
Identifier
46707, 2020-073AP
Orbit
LEO
Last TLE update10 hours ago
Origin
Flag of USSpaceX/Seattle (US)
ManufacturerSpaceX/Seattle
MissionPartially operational Commercial Communications
Bus & MotorSTARLINK, Unknown motor
Mass260 kg wet, ~248 kg dry
Launch date (UTC)
2020-10-18 (4 years ago)
Launch vehicle
FALCON 9
Launch site
Air Force Eastern Test Range (AFETR)
Object type
Payload
Rocket body
Debris
Shape & HBRBox + 1 Pan, 8.86 m
Radar Cross Section13.562 m², Large (>1 m²)

Expand to show TLE details & history

TLE from 10 hours ago
0 STARLINK-1808
1 46707U 20073AP  24346.53668895  .00097395  00000-0  21027-2 0  9992
2 46707  53.0530  88.7562 0004458 345.6865  14.4014 15.43757596229218
Epoch: 2024-12-11T12:52Z
Definitive object data (Epoch: 2024-12-11T12:52:49.925Z)
Latitude0.00005°
Longitude174.81826°
Altitude432.983 km
Speed7.655 km/s
True Right ascension05h 55m 01s
True Declination0° 00' 00"
Sunlit
Object was in full shadow at TLE epoch
Visualization TLE readout
Latitude-31.51538°
Longitude20.08003°
Altitude446.302 km
Speed7.643 km/s
Apparent Right ascension15h 47m 39s
Apparent Declination-69° 26' 14"
Sunlit
Object is in daylight
Visualization observer readout
Local Sidereal Time21:33:24
Azimuth205.586° SW
Elevation-35.736°
Doppler factor1
Orbital elements
Apogee altitude438.344 km
Perigee altitude432.269 km
Semi-major axis6,813.443 km
Eccentricity0.0004458
Inclination53.053°
RAAN88.7562°
Arg. of periapsis345.6865°
True anomaly14.41411°
Mean anomaly14.4014°
Eccentric anomaly14.40776°
Mean motion3.85916 °/min
BSTAR0.0021027
Orbital period93.28 mins
Loading maneuver chart data...
Loading historical data...
Loading historical data...
Loading historical data...
Loading historical data...
Loading historical data...
Loading historical data...
Loading historical data...

STARLINK-1808 Visibility forecast

Observer location: undefined°, undefined

Span
Click to sort rows by Start time (UTC) header in descending order
Start Az.
Max El. time (UTC)
Max El. Az.
Max El.
End time (UTC)
End Az.
6 mins2024-12-12 09:14:16.300Z205.493° SW2024-12-12 09:17:16.300Z138.41° SSE33.627°2024-12-12 09:20:16.300Z64.639° ENE
4 mins2024-12-12 10:53:16.300Z299.189° NW2024-12-12 10:54:16.300Z325.832° NNW22.581°2024-12-12 10:57:16.300Z28.508° NE
4 mins2024-12-12 15:47:16.300Z345.929° N2024-12-12 15:48:16.300Z17.693° NNE30.129°2024-12-12 15:51:16.300Z98.097° ESE
4 mins2024-12-12 17:24:16.300Z261.244° W2024-12-12 17:25:16.300Z235.696° WSW21.893°2024-12-12 17:28:16.300Z174.194° S
|